Regional Weather Roundup
Issued by NWS

Home | Current Version | Previous Version | Graphics & Text | Print | Product List | Glossary On
Versions: 1 2 3 4 5 6 7 8 9 10 11 12 13 14 15 16 17 18 19 20 21 22 23 24 25 26 27 28 29 30 31 32 33 34 35 36 37 38 39 40 41 42 43 44 45 46 47 48 49 50
000
ASUS43 KFSD 020210
RWRSD

WEATHER ROUNDUP FOR SOUTH DAKOTA
NATIONAL WEATHER SERVICE SIOUX FALLS SD
900 PM CDT WED JUL 01 2015

NOTE: "FAIR" INDICATES FEW OR NO CLOUDS BELOW 12,000 FEET WITH NO
SIGNIFICANT WEATHER AND/OR OBSTRUCTIONS TO VISIBILITY.


SDZ001>005-009-010-012>017-020300-
NORTHWEST AND NORTH CENTRAL SOUTH DAKOTA

CITY           SKY/WX    TMP DP  RH WIND       PRES   REMARKS
BUFFALO          N/A     72  63  73 NE10      29.94R
FAITH            N/A     72  62  71 NE5       29.97S
MOBRIDGE       PTCLDY    76  68  76 E7        29.91S
$$

SDZ012>016-024>037-041>051-057-063-072>074-020300-
SOUTHWEST AND SOUTH CENTRAL SOUTH DAKOTA

CITY           SKY/WX    TMP DP  RH WIND       PRES   REMARKS
RAPID CTY ARPT CLEAR     75  63  66 E9        29.99S
PIERRE         CLEAR     73  67  81 NE6       29.91R
CUSTER         MOCLDY    68  61  78 E9        30.13S HAZE
ELLSWORTH AFB  CLEAR     76  65  68 E6        29.98F
PHILIP         CLEAR     76  67  73 NE7       29.94S
PINE RIDGE     CLEAR     75  63  66 NE7       29.99S
SPEARFISH      FAIR      72  66  83 SE8       30.04S
WINNER         MOCLDY    78  65  63 E6        29.92S
$$

SDZ004>011-016>023-039-040-020300-
NORTHEAST SOUTH DAKOTA

CITY           SKY/WX    TMP DP  RH WIND       PRES   REMARKS
ABERDEEN       CLEAR     72  64  76 E8        29.94R
WATERTOWN      CLEAR     67  57  70 E8        29.96F
BROOKINGS      MOCLDY    66  55  68 E10       29.98S
SISSETON         N/A     66  55  67 SE6       29.96R
$$

SDZ017-020-022-023-036>040-048>070-020300-
SOUTHEAST SOUTH DAKOTA

CITY           SKY/WX    TMP DP  RH WIND       PRES   REMARKS
SIOUX FALLS    CLOUDY    70  56  61 E12       29.95R
HURON          PTCLDY    70  66  87 SE6       29.92S
CHAMBERLAIN    CLEAR     74  67  80 E7        29.92R
MITCHELL       CLEAR     73  66  78 E7        29.94R
YANKTON        PTCLDY    72  64  78 E9        29.91S
$$

ABBREVIATIONS USED IN REMARKS
   TC - TEMPERATURE IN CELSIUS
  WCI - WIND CHILL INDEX
   HX - HEAT INDEX
  VSB - VISIBILITY




USA.gov is the U.S. government's official web portal to all federal, state and local government web resources and services.